Stations météo

réclame
Mon MeteoGroup
Konstanz, Allemagne (10929): Température de l'air & dewpoint: 19.11.2017 02:00:00 - 25.11.2017 02:00:00 (CET)Konstanz, Allemagne (10929): Température de l'air 5cm & Température de l'air -5cm: 19.11.2017 02:00:00 - 25.11.2017 02:00:00 (CET)Konstanz, Allemagne (10929): Température de l'air -20cm & Température de l'air -100cm: 19.11.2017 02:00:00 - 25.11.2017 02:00:00 (CET)Konstanz, Allemagne (10929): Vitesse du vent & gusts: 19.11.2017 02:00:00 - 25.11.2017 02:00:00 (CET)Konstanz, Allemagne (10929): Direction du vent: 19.11.2017 02:00:00 - 25.11.2017 02:00:00 (CET)Konstanz, Allemagne (10929): reduced air pressure: 19.11.2017 02:00:00 - 25.11.2017 02:00:00 (CET)Konstanz, Allemagne (10929): visibility: 19.11.2017 02:00:00 - 25.11.2017 02:00:00 (CET)Konstanz, Allemagne (10929): Ensoleillement: 19.11.2017 02:00:00 - 25.11.2017 02:00:00 (CET)Konstanz, Allemagne (10929): Quantités de précipitations: 19.11.2017 02:00:00 - 25.11.2017 02:00:00 (CET)
Date & Time tt [°C] td [°C] tt 5cm [°C] tt -5cm [°C] tt -20cm [°C] tt -100cm [°C] ff [km/h] ff [knt] fx [km/h] fx [knt] dd ppp [hPa] vv [km] sd [min] rr [mm]
25.11.2017 02:00:00 9,4 6,8 8,7 7,3 7,3 8,9 5 3 14 7 ENE 1013,1 41 0 0,0
25.11.2017 01:00:00 10,1 6,8 8,6 7,2 7,3 8,9 7 4 11 6 SSW 1013,8 45 0 0,0
25.11.2017 00:00:00 9,9 7,0 8,1 7,3 7,4 8,9 5 3 21 11 S 1015,2 51 0 0,0
24.11.2017 23:00:00 10,4 6,7 9,4 7,3 7,4 8,9 13 7 22 12 W 1015,5 70 0 0,0
24.11.2017 22:00:00 9,7 5,9 8,3 7,4 7,4 8,9 4 2 8 4 NW 1015,9 48 0 0,0
24.11.2017 21:00:00 11,0 5,9 8,5 7,5 7,4 8,9 4 2 16 9 W 1015,4 40 0 0,0
24.11.2017 20:00:00 11,6 5,8 9,8 7,6 7,5 8,9 9 5 16 8 WSW 1015,3 40 0 0,0
24.11.2017 19:00:00 11,3 5,8 8,9 7,7 7,5 8,9 5 3 16 8 W 1015,1 40 0 0,0
24.11.2017 18:00:00 11,7 5,5 8,8 8,0 7,5 8,9 5 3 16 9 WSW 1015,1 45 0 0,0
24.11.2017 17:00:00 11,9 5,3 10,3 8,5 7,4 8,9 11 6 16 9 SW 1015,3 60 0 0,0
24.11.2017 16:00:00 12,6 4,1 11,1 9,2 7,2 8,9 6 4 15 8 SW 1015,1 60 0 0,0
24.11.2017 15:00:00 13,5 3,4 13,0 9,7 6,9 8,9 6 3 13 7 W 1014,7 60 14 0,0
24.11.2017 14:00:00 14,3 3,0 15,3 9,7 6,5 8,9 6 4 12 6 WSW 1014,8 45 58 0,0
24.11.2017 13:00:00 12,5 4,0 12,9 8,9 6,1 8,9 8 5 14 8 ESE 1015,3 45 58 0,0
24.11.2017 12:00:00 12,8 4,1 11,8 7,9 5,7 8,9 7 4 15 8 WSW 1015,5 45 60 0,0
24.11.2017 11:00:00 9,8 3,9 10,1 6,4 5,5 8,9 7 4 11 6 ESE 1017,0 45 43 0,0
24.11.2017 10:00:00 9,5 3,9 10,7 5,0 5,4 8,9 6 3 11 6 NE 1016,8 45 60 0,0
24.11.2017 09:00:00 7,3 2,2 4,7 3,9 5,5 8,9 5 3 14 7 ESE 1017,2 45 57 0,0
24.11.2017 08:00:00 6,0 2,7 4,3 3,9 5,6 8,9 10 5 14 8 E 1016,9 35 0 0,0
24.11.2017 07:00:00 5,9 2,5 4,1 4,1 5,7 8,9 9 5 13 7 E 1016,7 23 0 0,0
24.11.2017 06:00:00 5,8 2,9 4,0 4,5 5,8 8,9 8 5 14 7 E 1016,9 20 0 0,0
24.11.2017 05:00:00 6,2 4,0 4,4 4,8 5,8 8,9 7 4 11 6 E 1017,3 50 0 0,0
24.11.2017 04:00:00 6,8 4,0 5,7 4,9 5,8 8,9 7 4 13 7 NE 1017,5 46 0 0,0
24.11.2017 03:00:00 6,9 3,7 6,0 5,0 5,9 8,9 8 5 16 8 ENE 1017,6 53 0 0,0
24.11.2017 02:00:00 7,1 3,7 6,0 5,0 5,9 8,9 8 4 14 8 E 1017,6 42 0 0,0
24.11.2017 01:00:00 7,8 3,4 6,4 5,0 6,0 8,9 10 5 19 10 E 1017,4 57 0 0,0
24.11.2017 00:00:00 7,4 3,7 5,8 5,1 6,0 8,9 9 5 29 15 NE 1017,7 36 0 0,0
23.11.2017 23:00:00 12,4 1,8 10,1 5,4 6,1 8,9 16 9 31 17 WSW 1016,4 70 0 0,0
23.11.2017 22:00:00 12,7 2,0 9,7 5,4 6,1 8,9 14 7 26 14 W 1016,6 70 0 0,0
23.11.2017 21:00:00 12,7 1,8 10,2 5,4 6,2 8,9 14 7 24 13 W 1016,4 23 0 0,0
23.11.2017 20:00:00 11,6 1,8 7,0 5,8 6,2 8,9 4 2 26 14 WNW 1015,9 27 0 0,0
23.11.2017 19:00:00 13,1 1,3 11,2 5,9 6,2 8,9 11 6 26 14 W 1015,7 30 0 0,0
23.11.2017 18:00:00 10,6 2,2 6,3 6,0 6,3 8,9 7 4 21 12 SSW 1016,0 30 0 0,0
23.11.2017 17:00:00 10,6 2,2 6,6 6,7 6,2 8,9 6 3 9 5 NW 1015,6 40 0 0,0
23.11.2017 16:00:00 11,6 2,9 8,9 7,6 6,0 8,9 3 2 11 6 ENE 1015,0 45 5 0,0
23.11.2017 15:00:00 11,5 4,1 10,5 7,9 5,6 8,9 6 4 16 9 E 1014,5 45 35 0,0
23.11.2017 14:00:00 10,6 3,2 10,5 7,8 5,2 8,9 9 5 16 9 ESE 1014,6 55 24 0,0
23.11.2017 13:00:00 11,7 4,0 11,5 7,1 4,8 8,9 6 3 18 10 WSW 1014,5 50 12 0,0
23.11.2017 12:00:00 10,5 4,1 10,4 6,5 4,4 8,9 6 3 12 6 S 1014,8 45 60 0,0
23.11.2017 11:00:00 8,1 3,6 7,8 4,2 4,2 8,9 6 3 10 5 E 1015,4 45 54 0,0
23.11.2017 10:00:00 6,7 3,8 5,4 2,8 4,1 8,9 5 3 15 8 ENE 1015,4 40 51 0,0
23.11.2017 09:00:00 4,3 2,8 2,9 1,9 4,2 8,9 10 5 16 9 E 1015,5 40 57 0,0
23.11.2017 08:00:00 3,0 2,4 1,5 1,7 4,3 8,9 8 4 16 8 NNE 1015,4 35 0 0,0
23.11.2017 07:00:00 2,0 1,7 0,8 1,7 4,4 8,9 9 5 15 8 S 1015,3 4,0 0 0,0
23.11.2017 06:00:00 1,6 1,2 0,4 1,7 4,6 8,9 7 4 10 6 ENE 1015,3 20 0 0,0
23.11.2017 05:00:00 0,8 0,4 -0,3 1,9 4,8 8,9 4 2 12 7 NNW 1015,0 0,8 0 0,0
23.11.2017 04:00:00 2,4 1,9 0,0 2,1 4,9 8,9 5 3 7 4 N 1014,1 12 0 0,0
23.11.2017 03:00:00 2,7 2,3 -1,2 2,5 5,1 8,9 3 2 7 4 W 1014,0 14 0 0,0
23.11.2017 02:00:00 2,6 2,0 0,5 2,7 5,3 8,9 4 2 7 4 W 1013,7 15 0 0,0
23.11.2017 01:00:00 2,7 1,9 0,2 3,0 5,5 8,9 5 3 6 3 NNE 1013,9 19 0 0,0
23.11.2017 00:00:00 3,5 2,4 1,3 3,3 5,6 8,9 6 3 11 6 NNW 1014,1 36 0 0,0
22.11.2017 23:00:00 4,0 2,9 1,9 3,6 5,8 8,9 9 5 13 7 WNW 1014,1 31 0 0,0
22.11.2017 22:00:00 4,5 3,5 1,5 3,8 6,1 8,9 6 3 9 5 NW 1014,0 38 0 0,0
22.11.2017 21:00:00 4,7 3,3 0,9 4,3 6,3 8,9 5 3 12 6 NW 1013,9 45 0 0,0
22.11.2017 20:00:00 5,7 4,1 3,0 4,8 6,5 9,0 7 4 13 7 NNE 1014,0 45 0 0,0
22.11.2017 19:00:00 6,6 3,3 2,7 5,4 6,6 9,0 7 4 10 5 NNE 1014,0 45 0 0,0
22.11.2017 18:00:00 7,3 2,3 3,7 6,1 6,7 9,0 5 3 7 4 ENE 1014,1 60 0 0,0
22.11.2017 17:00:00 8,2 2,4 4,4 7,2 6,7 9,0 4 2 8 4 E 1014,2 60 40 0,0
22.11.2017 16:00:00 10,4 2,8 8,4 8,6 6,5 9,0 5 3 11 6 SE 1013,8 60 60 0,0
22.11.2017 15:00:00 10,5 4,4 11,3 9,3 6,1 9,0 6 3 9 5 ESE 1014,1 50 60 0,0
22.11.2017 14:00:00 12,2 2,6 13,5 9,3 5,6 9,0 5 3 8 5 E 1014,3 50 60 0,0
22.11.2017 13:00:00 12,2 3,1 13,1 7,9 5,1 9,0 3 2 8 4 W 1014,8 60 60 0,0
22.11.2017 12:00:00 10,7 4,3 8,8 7,0 4,7 9,0 4 2 7 4 SW 1015,6 60 60 0,0
22.11.2017 11:00:00 9,0 3,7 8,1 5,5 4,5 9,0 3 2 6 4 E 1016,5 60 60 0,0
22.11.2017 10:00:00 5,8 3,1 6,4 3,4 4,4 9,0 4 2 11 6 W 1017,1 60 60 0,0
22.11.2017 09:00:00 4,3 3,6 3,5 2,6 4,4 9,0 5 3 15 8 NE 1017,6 82 23 0,0
22.11.2017 08:00:00 3,2 2,7 1,2 2,4 4,5 9,0 3 2 12 6 SE 1017,7 82 0 0,0
22.11.2017 07:00:00 3,2 2,8 2,0 2,4 4,6 9,0 8 4 11 6 NNE 1017,7 14 0 0,0
22.11.2017 06:00:00 3,4 3,0 2,6 2,5 4,7 9,0 9 5 13 7 NNE 1017,9 10 0 0,0
22.11.2017 05:00:00 3,1 2,6 1,2 2,6 4,9 9,0 6 4 11 6 NNE 1018,0 13 0 0,0
22.11.2017 04:00:00 3,4 2,9 1,7 2,7 5,0 9,0 7 4 10 5 NNE 1018,1 22 0 0,0
22.11.2017 03:00:00 3,4 2,9 2,1 2,8 5,1 9,0 7 4 10 5 NE 1018,4 14 0 0,0
22.11.2017 02:00:00 3,6 3,0 1,6 3,1 5,3 9,0 5 3 10 5 NE 1018,5 15 0 0,0
22.11.2017 01:00:00 4,1 3,4 2,4 3,3 5,4 9,0 6 4 10 5 E 1018,5 19 0 0,0
22.11.2017 00:00:00 4,6 3,7 2,9 3,5 5,6 9,0 7 4 10 6 NE 1018,6 23 0 0,0
21.11.2017 23:00:00 5,3 4,1 2,6 3,8 5,7 9,0 5 3 8 4 E 1018,5 24 0 0,0
21.11.2017 22:00:00 5,3 3,7 3,0 4,2 5,9 9,0 2 1 8 4 ENE 1018,6 40 0 0,0
21.11.2017 21:00:00 6,2 4,2 3,6 4,5 6,1 9,0 3 2 10 5 SE 1018,3 30 0 0,0
21.11.2017 20:00:00 6,1 4,2 3,8 4,9 6,2 9,0 3 2 12 7 SSE 1018,7 30 0 0,0
21.11.2017 19:00:00 6,3 4,8 4,8 5,4 6,3 9,0 8 5 15 8 NNE 1018,9 45 0 0,0
21.11.2017 18:00:00 7,0 5,3 3,8 6,0 6,3 9,0 4 2 8 4 SSE 1018,7 45 0 0,0
21.11.2017 17:00:00 7,4 4,8 5,8 6,8 6,3 9,0 6 3 9 5 SE 1018,5 45 0 0,0
21.11.2017 16:00:00 8,6 4,5 7,7 7,8 6,1 9,1 6 3 17 9 ESE 1018,5 45 43 0,0
21.11.2017 15:00:00 11,2 3,1 11,7 7,5 5,8 9,1 12 7 22 12 WSW 1018,2 45 23 0,0
21.11.2017 14:00:00 9,2 3,8 9,4 7,4 5,5 9,1 2 1 7 4 SW 1019,0 45 5 0,0
21.11.2017 13:00:00 8,4 3,5 8,6 6,7 5,3 9,1 2 1 8 4 W 1019,6 45 0 0,0
21.11.2017 12:00:00 7,4 3,4 6,7 5,9 5,1 9,1 3 1 14 7 WSW 1020,2 45 0 0,2
21.11.2017 11:00:00 6,8 2,4 6,0 5,6 4,9 9,1 9 5 23 12 W 1020,9 25 6 0,1
21.11.2017 10:00:00 6,5 2,0 5,9 4,7 4,9 9,1 6 4 16 9 W 1020,6 55 19 0,0
21.11.2017 09:00:00 5,8 3,2 4,2 4,1 4,8 9,1 6 3 16 9 WSW 1020,6 45 9 0,0
21.11.2017 08:00:00 5,6 2,7 4,1 4,3 4,8 9,1 10 6 21 12 WSW 1020,8 28 0 0,1
21.11.2017 07:00:00 5,3 3,0 4,4 4,2 4,8 9,1 8 5 29 16 W 1020,9 25 0 0,1
21.11.2017 06:00:00 5,3 3,0 4,4 4,2 4,7 9,1 19 10 35 19 WSW 1020,9 25 0 0,3
21.11.2017 05:00:00 5,0 3,1 4,3 4,1 4,7 9,2 16 9 29 15 WSW 1021,2 26 0 0,4
21.11.2017 04:00:00 4,8 3,1 4,1 3,9 4,6 9,2 9 5 29 15 W 1021,6 8 0 0,6
21.11.2017 03:00:00 4,6 2,3 3,7 3,8 4,6 9,2 13 7 24 13 SW 1021,1 17 0 1,3
21.11.2017 02:00:00 4,5 3,0 3,8 3,8 4,6 9,2 5 3 21 11 W 1021,3 12 0 0,9
21.11.2017 01:00:00 5,0 1,5 4,4 3,6 4,6 9,2 10 5 18 10 NW 1021,3 23 0 0,0
21.11.2017 00:00:00 4,9 1,2 4,2 3,5 4,6 9,2 5 3 20 11 NW 1021,1 41 0 0,0
20.11.2017 23:00:00 3,8 1,4 2,1 3,5 4,6 9,2 4 2 14 8 SW 1021,5 30 0 0,0
20.11.2017 22:00:00 4,3 1,2 3,3 3,8 4,6 9,2 7 4 16 9 WSW 1021,8 31 0 0,0
20.11.2017 21:00:00 4,5 1,0 4,1 3,8 4,6 9,2 10 6 14 8 WSW 1021,9 30 0 0,0
20.11.2017 20:00:00 4,5 0,9 4,0 3,8 4,6 9,3 5 3 11 6 W 1022,3 30 0 0,0
20.11.2017 19:00:00 4,4 0,6 4,0 3,8 4,6 9,3 8 4 13 7 WSW 1022,4 40 0 0,0
20.11.2017 18:00:00 4,0 0,7 3,5 3,9 4,6 9,3 6 3 19 11 SW 1022,8 40 0 0,0
20.11.2017 17:00:00 4,4 0,2 3,9 4,1 4,5 9,3 8 4 15 8 W 1023,2 50 0 0,0
20.11.2017 16:00:00 4,6 0,4 4,3 4,5 4,4 9,3 9 5 21 11 W 1023,1 45 0 0,0
20.11.2017 15:00:00 4,8 0,9 4,9 4,7 4,1 9,3 9 5 22 12 WSW 1023,0 35 0 0,0
20.11.2017 14:00:00 5,1 0,9 5,7 4,4 3,9 9,3 8 4 21 12 W 1023,4 27 4 0,0
20.11.2017 13:00:00 3,9 1,0 4,1 3,8 3,7 9,3 10 6 18 10 WSW 1024,7 27 0 0,0
20.11.2017 12:00:00 3,5 1,0 4,1 2,9 3,6 9,3 2 1 7 4 WNW 1025,4 9 0 0,0
20.11.2017 11:00:00 2,7 1,0 2,5 2,1 3,5 9,3 3 2 6 3 N 1026,2 7 0 0,0
20.11.2017 10:00:00 2,1 1,0 1,7 1,6 3,5 9,3 4 2 6 3 N 1026,0 5 0 0,0
20.11.2017 09:00:00 1,5 0,6 1,0 1,4 3,6 9,4 3 2 6 3 WSW 1025,8 6 0 0,0
20.11.2017 08:00:00 1,0 0,3 0,3 1,4 3,6 9,4 5 3 7 4 W 1025,9 5 0 0,0
20.11.2017 07:00:00 0,8 0,2 -0,2 1,4 3,7 9,4 3 2 8 4 NNE 1025,7 5 0 0,0
20.11.2017 06:00:00 1,0 0,3 -0,4 1,4 3,7 9,4 4 2 6 4 WNW 1025,8 6 0 0,0
20.11.2017 05:00:00 0,5 -0,2 -0,6 1,4 3,8 9,4 5 3 9 5 W 1025,9 9 0 0,0
20.11.2017 04:00:00 0,4 -0,5 -1,0 1,4 3,9 9,4 8 4 10 6 NW 1026,1 11 0 0,0
20.11.2017 03:00:00 0,7 -0,4 -1,1 1,4 4,0 9,4 6 4 11 6 NNW 1026,5 18 0 0,0
20.11.2017 02:00:00 1,6 -0,1 -0,7 1,5 4,1 9,4 7 4 13 7 W 1026,4 23 0 0,0
20.11.2017 01:00:00 1,7 -0,3 0,1 1,5 4,2 9,4 9 5 14 7 W 1026,2 27 0 0,0
20.11.2017 00:00:00 1,7 -0,6 -0,3 1,5 4,3 9,4 9 5 17 9 W 1026,3 38 0 0,0
19.11.2017 23:00:00 2,2 -0,4 0,4 1,8 4,5 9,4 10 6 21 12 W 1026,1 30 0 0,0
19.11.2017 22:00:00 2,1 -0,3 0,1 2,1 4,6 9,5 11 6 20 11 W 1025,9 38 0 0,0
19.11.2017 21:00:00 2,5 -0,1 0,6 2,5 4,8 9,5 11 6 21 11 W 1025,3 41 0 0,0
19.11.2017 20:00:00 3,0 0,1 1,7 2,8 4,9 9,5 10 5 22 12 WSW 1024,4 50 0 0,0
19.11.2017 19:00:00 2,8 0,0 1,4 3,0 5,1 9,5 10 5 16 9 WSW 1024,2 41 0 0,0
19.11.2017 18:00:00 2,9 -0,3 -0,1 3,4 5,2 9,5 7 4 9 5 WSW 1023,9 63 0 0,0
19.11.2017 17:00:00 3,8 -1,1 1,1 4,2 5,2 9,5 7 4 22 12 W 1023,0 30 31 0,0
19.11.2017 16:00:00 5,0 -1,1 3,9 5,4 5,0 9,5 10 5 23 13 WNW 1022,1 40 48 0,0
19.11.2017 15:00:00 6,0 -0,3 7,8 5,4 4,8 9,5 12 7 32 17 W 1021,7 35 17 0,0
19.11.2017 14:00:00 5,2 -0,5 5,5 5,4 4,5 9,5 13 7 34 18 WNW 1021,3 35 28 0,0
19.11.2017 13:00:00 4,9 0,3 5,2 4,7 4,3 9,5 16 8 27 15 W 1021,3 25 23 0,0
19.11.2017 12:00:00 3,8 2,4 3,9 3,7 4,2 9,5 11 6 34 18 WNW 1021,5 22 0 0,4
19.11.2017 11:00:00 3,3 1,6 3,2 3,1 4,0 9,5 16 8 26 14 W 1021,0 13 0 0,0
19.11.2017 10:00:00 2,9 0,9 2,4 2,6 4,0 9,6 13 7 35 19 W 1020,5 12 0 0,0
19.11.2017 09:00:00 2,4 0,5 1,8 2,2 4,0 9,6 18 10 39 21 W 1020,3 12 0 0,0
19.11.2017 08:00:00 2,2 0,4 1,5 1,9 4,0 9,6 19 10 37 20 W 1019,7 17 0 0,0
19.11.2017 07:00:00 1,7 0,2 1,0 1,6 4,1 9,6 24 13 47 25 WSW 1018,9 17 0 0,7
19.11.2017 06:00:00 1,1 0,0 0,5 1,5 4,2 9,6 16 8 28 15 W 1020,2 3,5 0 0,9
19.11.2017 05:00:00 0,7 -0,1 0,3 1,6 4,5 9,6 10 5 16 9 W 1020,9 3,2 0 1,4
19.11.2017 04:00:00 0,8 -0,1 0,1 1,8 4,7 9,6 9 5 24 13 WSW 1020,9 2,4 0 1,1
19.11.2017 03:00:00 0,9 0,0 0,1 1,9 4,9 9,6 9 5 13 7 WSW 1021,7 4,6 0 1,0
19.11.2017 02:00:00 0,5 -0,2 0,0 2,2 5,0 9,6 6 3 20 11 W 1022,4 2,3 0 2,3

tt = Température de l'air
td = dewpoint
tt 5cm = Température de l'air 5cm
tt -5cm = Température de l'air -5cm
tt -20cm = Température de l'air -20cm
tt -100cm = Température de l'air -100cm
ff = Vitesse du vent
fx = gusts
dd = Direction du vent
ppp = reduced air pressure
vv = visibility
sd = Ensoleillement
rr = Quantités de précipitations

stations d'obs. à proximité